Weather History for KD50 - November, 2013

Change the Weather History Date:

Thursday, November 14, 2013

  Actual Average (KISN) Record (KISN)
Temperature  
Mean Temperature 34 °F 28 °F  
Max Temperature 39 °F 39 °F 67 °F (1899)
Min Temperature 28 °F 17 °F -15 °F (2014)
Degree Days  
Heating Degree Days 32 37  
Month to date heating degree days 466  
Since 1 July heating degree days 1493  
Cooling Degree Days 0 0  
Month to date cooling degree days 0  
Year to date cooling degree days 456  
Moisture  
Dew Point 33 °F    
Average Humidity 99    
Maximum Humidity 100    
Minimum Humidity 87    
Precipitation  
Precipitation 0.01 in 0.02 in 0.26 in (1955)
Month to date precipitation 0.35  
Year to date precipitation 13.45  
Sea Level Pressure  
Sea Level Pressure 29.79 in    
Wind  
Wind Speed 9 mph (WSW)    
Max Wind Speed 18 mph    
Max Gust Speed 25 mph    
Visibility 9 miles    
Events Fog , Rain    
T = Trace of Precipitation, MM = Missing Value Source: NWS Daily Summary

Daily Weather History Graph

Daily Weather History Graph

Search for Another Location

Airport or City:

Trip Planner

Search our weather history database for the weather conditions in past years. The results will help you decide how hot, cold, wet, or windy it might be!

Date:

Astronomy

Nov. 14, 2013 Rise Set
Actual Time 8:01 AM CST 5:13 PM CST
Civil Twilight 7:26 AM CST 5:47 PM CST
Nautical Twilight 6:48 AM CST 6:26 PM CST
Astronomical Twilight 6:11 AM CST 7:03 PM CST
Moon 3:47 PM CST (11/14) 4:45 AM CST (11/14)
Length of Visible Light 10h 21m
Length of Day
9h 11m
Waxing Gibbous, 92% of the Moon is Illuminated
Nov 14
Waxing Gibbous
Nov 17
Full
Nov 25
Last Quarter
Dec 2
New
Dec 9
First Quarter

Hourly Weather History & Observations

Time (CST) Temp. Windchill Dew Point Humidity Pressure Visibility Wind Dir Wind Speed Gust Speed Precip Events Conditions
12:15 AM 37.4 °F 33.8 °F 37.4 °F 100% 29.87 in 4.0 mi NW 4.6 mph - N/A Rain Light Rain
12:35 AM 37.4 °F 32.8 °F 37.4 °F 100% 29.86 in 4.0 mi WNW 5.8 mph - N/A Rain Light Rain
12:55 AM 35.6 °F 29.9 °F 35.6 °F 100% 29.86 in 1.2 mi West 6.9 mph - N/A   Mist
1:15 AM 32.0 °F 25.6 °F 32.0 °F 100% 29.86 in 0.5 mi WNW 6.9 mph - N/A Fog Fog
1:35 AM 32.0 °F 25.6 °F 32.0 °F 100% 29.86 in 0.5 mi WNW 6.9 mph - N/A Fog Fog
1:55 AM 32.0 °F 25.6 °F 32.0 °F 100% 29.86 in 0.2 mi WSW 6.9 mph - N/A Fog Fog
2:15 AM 32.0 °F 25.6 °F 32.0 °F 100% 29.85 in 0.5 mi WSW 6.9 mph - N/A Fog Fog
2:35 AM 32.0 °F 24.8 °F 32.0 °F 100% 29.86 in 1.8 mi WSW 8.1 mph - N/A   Mist
2:55 AM 32.0 °F 25.6 °F 32.0 °F 100% 29.87 in 7.0 mi SW 6.9 mph - N/A   Unknown
3:15 AM 32.0 °F 26.4 °F 32.0 °F 100% 29.87 in 8.0 mi WSW 5.8 mph - N/A   Unknown
3:35 AM 33.8 °F 27.7 °F 33.8 °F 100% 29.86 in 10.0 mi WSW 6.9 mph - N/A   Unknown
3:55 AM 33.8 °F 26.4 °F 33.8 °F 100% 29.86 in 10.0 mi WSW 9.2 mph - N/A   Unknown
4:15 AM 32.0 °F 24.2 °F 32.0 °F 100% 29.87 in 10.0 mi WSW 9.2 mph - N/A   Unknown
4:35 AM 33.8 °F 25.3 °F 33.8 °F 100% 29.86 in 10.0 mi WSW 11.5 mph - N/A   Unknown
4:55 AM 32.0 °F 23.6 °F 32.0 °F 100% 29.85 in 10.0 mi WSW 10.4 mph - N/A   Unknown
5:15 AM 32.0 °F 24.8 °F 32.0 °F 100% 29.84 in 10.0 mi SW 8.1 mph - N/A   Unknown
5:35 AM 32.0 °F 23.6 °F 32.0 °F 100% 29.84 in 10.0 mi WSW 10.4 mph - N/A   Unknown
5:55 AM 32.0 °F 23.6 °F 32.0 °F 100% 29.84 in 10.0 mi WSW 10.4 mph - N/A   Unknown
6:15 AM 32.0 °F 24.8 °F 32.0 °F 100% 29.84 in 10.0 mi WSW 8.1 mph - N/A   Unknown
6:35 AM 32.0 °F 26.4 °F 32.0 °F 100% 29.82 in 10.0 mi WSW 5.8 mph - N/A   Unknown
6:55 AM 32.0 °F 27.5 °F 32.0 °F 100% 29.82 in 10.0 mi South 4.6 mph - N/A   Unknown
7:15 AM 32.0 °F 23.6 °F 32.0 °F 100% 29.82 in 10.0 mi SW 10.4 mph - N/A   Unknown
7:35 AM 32.0 °F 22.5 °F 32.0 °F 100% 29.81 in 10.0 mi SSW 12.7 mph - N/A Rain Light Rain
7:55 AM 32.0 °F 24.8 °F 32.0 °F 100% 29.83 in 10.0 mi SSW 8.1 mph - N/A   Unknown
8:15 AM 32.0 °F 24.8 °F 32.0 °F 100% 29.83 in 7.0 mi SW 8.1 mph - N/A Rain Light Rain
8:35 AM 32.0 °F - 32.0 °F 100% 29.82 in 10.0 mi Calm Calm - 0.01 in   Unknown
8:55 AM 32.0 °F 22.5 °F 32.0 °F 100% 29.79 in 10.0 mi South 12.7 mph - 0.01 in   Unknown
9:15 AM 32.0 °F 22.1 °F 32.0 °F 100% 29.78 in 10.0 mi SSW 13.8 mph - N/A   Unknown
9:35 AM 32.0 °F 21.6 °F 32.0 °F 100% 29.78 in 10.0 mi SSW 15.0 mph - N/A   Unknown
9:55 AM 32.0 °F 22.1 °F 32.0 °F 100% 29.80 in 10.0 mi WSW 13.8 mph - N/A   Unknown
10:15 AM 32.0 °F 23.6 °F 32.0 °F 100% 29.80 in 10.0 mi SW 10.4 mph - N/A   Unknown
10:35 AM 33.8 °F 30.8 °F 33.8 °F 100% 29.81 in 10.0 mi West 3.5 mph - N/A   Unknown
10:55 AM 37.4 °F 29.8 °F 35.6 °F 93% 29.80 in 10.0 mi West 11.5 mph 16.1 mph N/A   Unknown
11:15 AM 37.4 °F 27.5 °F 35.6 °F 93% 29.79 in 10.0 mi West 18.4 mph 23.0 mph N/A   Unknown
11:35 AM 39.2 °F 29.8 °F 37.4 °F 93% 29.79 in 10.0 mi WNW 18.4 mph 25.3 mph N/A   Unknown
11:55 AM 39.2 °F 29.8 °F 37.4 °F 93% 29.78 in 10.0 mi WNW 18.4 mph - N/A   Unknown
12:15 PM 37.4 °F 28.2 °F 37.4 °F 100% 29.78 in 10.0 mi WNW 16.1 mph 20.7 mph N/A   Unknown
12:35 PM 37.4 °F 27.8 °F 37.4 °F 100% 29.78 in 10.0 mi NW 17.3 mph 23.0 mph N/A   Unknown
12:55 PM 37.4 °F 28.2 °F 37.4 °F 100% 29.78 in 10.0 mi NW 16.1 mph 20.7 mph N/A   Unknown
1:15 PM 37.4 °F 28.2 °F 37.4 °F 100% 29.78 in 10.0 mi NW 16.1 mph 20.7 mph N/A   Unknown
1:35 PM 37.4 °F 27.5 °F 37.4 °F 100% 29.78 in 10.0 mi WNW 18.4 mph 24.2 mph N/A   Unknown
1:55 PM 35.6 °F 26.6 °F 35.6 °F 100% 29.78 in 10.0 mi WNW 13.8 mph - N/A   Unknown
2:15 PM 35.6 °F 26.2 °F 35.6 °F 100% 29.78 in 10.0 mi WNW 15.0 mph - N/A   Unknown
2:35 PM 35.6 °F 25.9 °F 35.6 °F 100% 29.77 in 10.0 mi WNW 16.1 mph - N/A   Unknown
2:55 PM 35.6 °F 25.9 °F 33.8 °F 93% 29.76 in 10.0 mi WNW 16.1 mph - N/A   Unknown
3:15 PM 35.6 °F 25.9 °F 32.0 °F 87% 29.76 in 10.0 mi WNW 16.1 mph - N/A   Unknown
3:35 PM 35.6 °F 26.6 °F 32.0 °F 87% 29.76 in 10.0 mi West 13.8 mph - N/A   Unknown
3:55 PM 35.6 °F 28.6 °F 33.8 °F 93% 29.76 in 10.0 mi WNW 9.2 mph - N/A   Unknown
4:15 PM 35.6 °F 30.7 °F 33.8 °F 93% 29.77 in 10.0 mi WNW 5.8 mph - N/A   Unknown
4:35 PM 35.6 °F 29.9 °F 33.8 °F 93% 29.76 in 10.0 mi West 6.9 mph - N/A   Unknown
4:55 PM 35.6 °F 31.7 °F 33.8 °F 93% 29.76 in 10.0 mi West 4.6 mph - N/A   Unknown
5:15 PM 35.6 °F 31.7 °F 33.8 °F 93% 29.76 in 10.0 mi West 4.6 mph - N/A   Unknown
5:35 PM 33.8 °F 29.6 °F 33.8 °F 100% 29.76 in 10.0 mi SW 4.6 mph - N/A   Unknown
5:55 PM 32.0 °F 28.7 °F 32.0 °F 100% 29.76 in 10.0 mi SW 3.5 mph - N/A   Unknown
6:15 PM 32.0 °F 27.5 °F 32.0 °F 100% 29.76 in 10.0 mi SSW 4.6 mph - N/A   Unknown
6:35 PM 30.2 °F 24.3 °F 30.2 °F 100% 29.75 in 10.0 mi SSW 5.8 mph - N/A   Unknown
6:55 PM 30.2 °F 26.7 °F 30.2 °F 100% 29.75 in 10.0 mi SSW 3.5 mph - N/A   Unknown
7:15 PM 28.4 °F 23.3 °F 28.4 °F 100% 29.74 in 10.0 mi South 4.6 mph - N/A   Unknown
7:35 PM 28.4 °F 21.2 °F 28.4 °F 100% 29.74 in 10.0 mi SSW 6.9 mph - N/A   Unknown
7:55 PM 28.4 °F 22.2 °F 28.4 °F 100% 29.74 in 10.0 mi SSW 5.8 mph - N/A   Unknown
8:15 PM 28.4 °F 22.2 °F 28.4 °F 100% 29.73 in 10.0 mi SSW 5.8 mph - N/A   Unknown
8:35 PM 28.4 °F 20.4 °F 28.4 °F 100% 29.73 in 10.0 mi SSW 8.1 mph - N/A   Unknown
8:55 PM 28.4 °F 21.2 °F 28.4 °F 100% 29.72 in 10.0 mi South 6.9 mph - N/A   Unknown
9:15 PM 28.4 °F 19.7 °F 28.4 °F 100% 29.72 in 10.0 mi SSW 9.2 mph - N/A   Unknown
9:35 PM 28.4 °F 19.1 °F 28.4 °F 100% 29.71 in 10.0 mi SSW 10.4 mph - N/A   Unknown
9:55 PM 30.2 °F 21.3 °F 30.2 °F 100% 29.71 in 10.0 mi SSW 10.4 mph - N/A   Unknown
10:15 PM 30.2 °F 21.9 °F 30.2 °F 100% 29.70 in 10.0 mi SSW 9.2 mph - N/A   Unknown
10:35 PM 30.2 °F 21.3 °F 30.2 °F 100% 29.69 in 10.0 mi SSW 10.4 mph - N/A   Unknown
10:55 PM 30.2 °F 19.8 °F 30.2 °F 100% 29.68 in 10.0 mi SSW 13.8 mph - N/A   Unknown
11:15 PM 30.2 °F 19.3 °F 30.2 °F 100% 29.67 in 10.0 mi SSW 15.0 mph - N/A   Unknown
11:35 PM 30.2 °F 19.8 °F 30.2 °F 100% 29.68 in 10.0 mi SSW 13.8 mph - N/A   Unknown
11:55 PM 28.4 °F 17.5 °F 28.4 °F 100% 29.67 in 10.0 mi SSW 13.8 mph - N/A   Unknown